#timestamp,LO_Frequency,Hit,StdDev 
1537477215.5,286046999.7,N
1537477235.4,286047003.8,N
1537477255.2,286047005.4,N
1537477275.0,286047004.5,N
1537477275.9,286047004.5,N
1537477295.8,286047005.9,N
1537477315.6,286047002.9,N
1537477335.4,286047001.8,N
1537477355.3,286047004.1,N
1537477375.1,286047004.2,N
1537477395.8,286047004.3,N
1537477415.7,286047001.8,N
1537477435.5,286047004.2,N
1537477455.4,286047004.2,N
1537477475.2,286047002.5,N
1537477495.0,286047002.4,N
1537477495.9,286047002.4,N
1537477515.8,286047001.0,N
1537477535.6,286047002.3,N
1537477555.4,286047002.6,N
1537477575.3,286046999.8,N
1537477595.1,286047002.6,N
1537477615.9,286047003.9,N
1537477635.7,286047003.7,N
1537477655.5,286047004.1,N
1537477675.4,286047003.7,N
1537477695.2,286047001.8,N
1537477715.0,286047002.9,N
1537477715.9,286047002.9,N
1537477735.8,286047003.6,N
1537477755.6,286047004.4,Y
1537477775.5,286046999.6,P
1537477795.3,286046996.5,N
1537477815.1,286046997.1,N
1537477835.9,286046998.0,N
1537477855.7,286046998.2,N
1537477875.5,286046999.8,N
1537477895.4,286046999.9,N
1537477915.2,286046998.7,N
1537477935.1,286046997.2,N
1537477936.0,286046997.2,N
1537477955.8,286046996.8,N
1537477975.6,286047001.2,N
1537477995.5,286046996.9,N
1537478015.3,286046998.7,N
1537478035.1,286047000.4,N
1537478055.9,286047001.2,N
1537478075.7,286047000.1,N
1537478095.6,286046999.4,N
1537478115.4,286046995.3,N
1537478135.2,286046997.0,N
1537478155.1,286047000.6,N
1537478156.0,286047000.6,N
1537478175.8,286047000.7,N
1537478195.6,286047000.7,N
1537478215.5,286046999.3,N
1537478235.3,286046999.9,N
1537478255.2,286047002.7,N
1537478275.9,286047002.6,N
1537478295.7,286047001.7,N
1537478315.6,286047000.7,N
1537478335.4,286046996.9,N
1537478355.2,286046996.8,N
1537478375.1,286046997.2,N
1537478376.0,286046997.2,N
1537478395.8,286046998.6,N
1537478415.7,286046998.8,N
1537478435.5,286047000.9,N
1537478455.3,286046999.0,N
1537478475.2,286046999.1,N
1537478495.0,286047001.0,N
1537478495.9,286047001.0,N
1537478515.7,286047000.9,N
1537478535.6,286046997.1,N
1537478555.4,286046997.5,N
1537478575.3,286046996.1,N
1537478595.1,286046997.1,N
1537478596.0,286046997.1,N
1537478615.8,286046999.0,N
1537478635.7,286046997.0,N
1537478655.5,286046998.2,N
1537478675.3,286047000.8,N
1537478695.2,286047000.7,N
1537478715.0,286046999.9,N
1537478715.9,286046999.9,N
1537478735.8,286047000.6,N
1537478755.6,286047000.9,N
1537478775.4,286046999.8,N
1537478795.3,286047000.7,N
1537478815.1,286047000.2,N
1537478835.9,286046999.9,N
1537478855.7,286046999.8,N
1537478875.5,286047002.7,N
1537478895.4,286047002.8,N
1537478915.2,286047000.2,N
1537478935.0,286047001.1,N
1537478935.9,286047001.1,N
1537478955.8,286046998.1,N
1537478975.6,286046996.9,N
1537478995.5,286046997.8,N
1537479015.3,286046995.3,N
1537479035.1,286046997.3,N
1537479055.9,286046995.4,N
1537479075.7,286046997.5,N
1537479095.5,286046995.5,N
1537479115.4,286046995.3,N
1537479135.2,286046995.2,N
1537479155.0,286046995.2,N
1537479156.0,286046995.2,N
1537479175.8,286046996.9,N
1537479195.6,286046996.8,N
1537479215.5,286046997.1,N
1537479235.3,286046998.9,N
1537479255.1,286046999.4,N
1537479275.9,286046999.6,N
1537479295.7,286046997.8,N
1537479315.5,286046997.6,N
1537479335.4,286046997.9,N
1537479355.2,286046996.6,N
1537479375.1,286046996.7,N
1537479376.0,286047011.9,Y
1537479395.8,286046998.4,P
1537479415.6,286046998.9,P
1537479435.5,286046998.6,P
1537479455.3,286047000.2,N
1537479475.2,286047000.4,N
1537479495.9,286047000.3,N
1537479515.7,286047002.6,N
1537479535.8,286047002.6,N
1537479555.6,286047004.2,N
1537479575.5,286047001.8,N
1537479595.3,286047003.9,N
1537479615.1,286047006.0,N
1537479635.9,286047003.8,N
1537479655.7,286047004.1,N
1537479675.6,286047003.3,N
1537479695.4,286047003.7,N
1537479715.2,286047003.0,N
1537479735.1,286047001.7,N
1537479736.0,286047001.7,N
1537479755.8,286047002.8,N
1537479775.6,286047001.3,N
1537479795.5,286047001.3,N
1537479815.3,286047003.9,N
1537479835.2,286047004.1,N
1537479855.9,286047003.2,N
1537479875.7,286047003.6,N
1537479895.6,286047002.9,N
1537479915.4,286047002.9,N
1537479935.2,286047001.3,N
1537479955.1,286047003.2,N
1537479956.0,286047003.2,N
1537479975.8,286047005.9,Y
1537479995.7,286047002.4,P
1537480015.5,286047000.3,P
1537480035.3,286046998.1,N
1537480055.2,286047000.4,N
1537480075.0,286047002.3,N
1537480075.9,286047002.3,N
1537480095.7,286047002.7,N
1537480115.6,286047002.3,N
1537480135.4,286047002.1,N
1537480155.3,286047002.0,N
1537480175.1,286047002.6,N
1537480176.0,286047002.6,N
1537480195.8,286047001.9,N
1537480215.7,286047002.2,N
1537480235.5,286047001.3,N
1537480255.3,286047001.8,N
1537480275.2,286047001.7,N
1537480295.0,286047001.6,N
1537480295.9,286047001.6,N
1537480315.8,286047003.0,N
1537480335.6,286047004.2,Y
1537480355.4,286047001.8,P
1537480375.3,286047000.4,P
1537480395.1,286046998.5,N
1537480415.8,286046997.2,N
1537480435.7,286046998.7,N
1537480455.5,286047000.3,N
1537480475.4,286047002.3,N
1537480495.2,286047002.1,N
1537480515.0,286046999.7,N
1537480515.9,286046999.7,N
1537480535.8,286047002.7,N
1537480555.6,286047002.6,N
1537480575.5,286047002.7,N
1537480595.3,286047000.8,N
1537480615.1,286046998.1,N
1537480635.9,286047000.8,N
1537480655.7,286046998.4,N
1537480675.5,286047000.5,N
1537480695.4,286047000.0,N
1537480715.2,286047002.7,N
1537480735.0,286047000.9,N
1537480736.0,286047000.9,N
1537480755.8,286047000.7,N
1537480775.6,286047000.6,N
1537480795.5,286047000.3,N
